Powrót do katalogu

COSMOS 2256

AktywnyMilitariaPO
NORAD 22691·PAYLOAD·🇷🇺 Russia

Wystrzelony Jun 24, 1993 z Plesetsk Cosmodrome

Loading…

Następne Przeloty (najbliższe 24 godziny)

TLE

ŚwieżeSource: Space-Track

Epoka: Sep 14, 2026, 11:11 UTC

1 22691U 93038E   26257.46603044  .00000038  00000-0  15091-3 0  9992
2 22691  82.5783 154.5390 0007294 135.6488  37.2803 12.63949397533095

Śledź COSMOS 2256 w czasie rzeczywistym z AllMySat

Download on the App Store